Tracking 23588 objects as of 6-Aug-2021
HD Live streaming from Space Station
objects crossing your sky now

BOBCAT-1

Track BOBCAT-1 now!
10-day predictions
BOBCAT-1 is classified as:


NORAD ID: 46922
Int'l Code: 1998-067RS
Perigee: 401.3 km
Apogee: 402.5 km
Inclination: 51.6 °
Period: 92.5 minutes
Semi major axis: 6772 km
RCS: Unknown
Launch date: November 20, 1998
Source: United States (US)
Launch site: TYURATAM MISSILE AND SPACE COMPLEX (TTMTR)

Uplink (MHz):
Downlink (MHz): 436.600
Beacon (MHz):
Mode: 9k6/38k4/57k6 GMSK
Call sign: BOBCAT-1
Status: Active

aabbcc
Your satellite tracking list
Your tracking list is empty




NASA's NSSDC Master Catalog

Two Line Element Set (TLE):
1 46922U 98067RS  21217.90120703  .00013488  00000-0  18595-3 0  9993
2 46922  51.6428  87.2575 0000920 252.3769 107.7122 15.57539128 42541
Source of the keplerian elements: AFSPC